Lid_Strength_Index
4 4 4 4 4 5 5 5 5 5 5 5 5 5 4 4 4 4 3 3 2 2 1 1 1 1 3 7 8 4 -0 1 2 3 3 6 9 11 13 13 12 13 11 10 10 10 12
4 4 4 4 5 5 5 5 5 5 5 5 5 5 4 4 4 3 3 2 2 1 1 1 1 1 4 9 4 4 3 3 4 5 4 6 8 9 12 13 13 11 11 10 11 11 11
4 4 4 4 4 5 5 5 5 5 5 5 5 4 4 4 3 3 3 2 2 1 1 1 1 2 6 7 4 4 4 5 4 5 6 6 5 8 9 11 9 9 12 11 11 11 11
4 4 4 4 4 5 5 5 5 5 5 5 4 4 4 3 3 3 2 2 1 0 1 1 2 4 8 4 4 5 5 5 4 4 5 5 6 8 8 8 9 11 12 16 12 10 10
4 4 4 4 4 5 5 5 5 5 5 5 4 4 4 3 3 2 2 2 1 1 2 2 5 8 11 4 6 5 5 6 5 5 6 4 6 8 8 12 14 13 16 15 13 10 10
4 4 4 4 4 5 5 5 5 5 5 4 4 4 4 3 2 2 2 2 1 2 2 3 4 9 8 7 5 4 4 5 6 7 9 9 10 11 12 14 18 16 15 14 14 11 10
3 4 4 4 5 5 5 5 5 4 4 4 4 4 3 3 2 2 4 6 7 9 7 9 8 8 7 5 4 5 4 5 7 9 13 12 14 15 13 12 11 12 13 14 12 9 12
3 3 4 4 4 5 5 5 4 4 4 4 4 4 3 3 2 2 6 7 6 6 11 7 7 7 5 5 8 6 4 9 10 13 11 13 15 11 9 10 11 12 14 14 11 9 11
2 3 3 4 4 5 5 5 4 4 4 4 4 4 3 3 2 5 7 5 3 6 12 9 7 8 7 6 8 8 6 8 10 12 12 14 12 10 10 11 12 12 14 14 14 11 10
2 2 3 3 4 4 5 5 4 4 4 4 4 3 3 3 5 6 7 5 4 7 16 11 9 7 6 6 9 5 5 7 9 12 11 12 10 10 11 12 11 15 11 10 12 13 17
2 2 2 3 3 4 5 5 5 4 4 4 4 3 3 3 7 7 5 6 6 8 21 9 8 3 4 8 7 7 5 7 10 10 10 13 11 11 12 11 9 12 10 10 11 13 14
2 2 2 3 3 4 5 5 5 4 4 4 4 3 3 5 7 6 6 6 7 15 19 12 8 8 9 8 8 6 6 6 7 9 10 10 8 9 10 9 9 8 10 11 13 13 19
2 2 2 3 3 4 4 5 5 5 4 4 4 4 5 5 6 5 6 8 15 17 10 12 11 9 10 11 10 9 10 11 13 15 14 11 11 9 8 11 10 10 15 20 21 20 21
2 2 2 3 3 3 4 5 5 5 5 5 5 5 4 4 5 5 8 11 17 13 12 9 10 10 12 10 11 10 11 13 10 11 14 15 17 11 8 10 12 12 14 19 23 22 19
2 2 2 2 3 3 4 5 5 5 5 5 6 7 7 5 4 6 9 15 15 13 10 11 11 13 13 11 11 11 12 13 11 10 15 16 15 9 8 8 9 13 16 12 17 16 18
2 2 2 2 3 3 4 5 5 5 5 5 10 8 8 6 5 7 11 13 12 9 8 10 14 12 15 13 13 13 13 10 11 9 10 12 16 11 9 8 9 11 10 17 16 21 19
2 2 2 2 3 3 4 5 5 5 6 6 10 10 8 7 6 10 16 14 10 7 8 11 12 13 13 13 12 13 12 10 9 9 9 11 13 13 11 13 13 14 15 14 14 16 19
2 2 2 2 2 3 4 5 5 5 6 7 11 14 8 8 12 14 16 11 8 8 7 9 9 11 13 12 13 12 13 11 7 8 12 10 12 16 14 10 9 11 13 12 18 17 17
2 2 2 2 2 3 4 5 5 5 6 8 13 12 9 9 16 15 12 11 9 10 9 10 10 10 10 13 14 12 11 8 7 9 11 10 14 18 17 13 11 13 12 12 13 14 17
2 2 2 2 2 3 4 5 5 5 6 11 13 15 12 12 12 14 15 13 12 9 9 8 9 9 10 12 11 13 12 9 8 7 6 8 13 15 18 15 13 15 13 13 13 17 16
2 2 2 2 2 2 3 5 5 6 6 11 13 15 13 15 14 14 14 13 13 13 10 9 10 10 12 14 13 13 11 10 8 7 9 10 15 14 13 12 12 13 13 13 14 14 16
2 2 2 2 2 2 3 5 5 6 6 11 13 13 12 13 12 14 14 14 13 12 12 11 12 11 11 12 12 13 11 11 12 10 10 10 14 13 15 12 13 14 13 12 12 12 13
2 2 2 2 2 3 4 5 5 5 8 13 13 12 10 13 14 15 15 13 12 11 11 10 10 11 12 11 9 9 8 8 9 11 11 12 13 15 17 13 14 17 14 12 12 12 13
2 3 2 3 3 3 4 5 5 5 7 9 11 10 13 15 14 13 12 11 11 11 12 10 9 11 9 8 8 7 8 8 9 9 9 12 12 14 17 15 21 13 10 11 12 12 11
2 3 3 3 4 4 4 4 5 6 6 9 9 10 11 14 13 12 11 11 10 11 12 10 9 8 8 10 11 13 13 12 11 10 11 11 12 15 18 18 15 12 12 12 13 14 10
3 4 4 3 4 5 4 4 5 6 5 9 9 8 10 13 14 10 12 11 13 13 12 10 8 7 8 12 12 16 17 15 15 13 10 10 10 14 16 19 20 12 10 8 9 16 9
4 4 4 4 4 4 4 4 5 5 6 7 9 10 12 13 11 11 13 14 11 13 13 12 10 9 9 14 14 15 16 12 16 15 15 14 14 16 16 17 15 11 9 8 15 15 9
5 5 5 5 5 4 4 4 4 5 5 8 9 9 10 12 12 9 9 11 11 12 14 11 10 10 9 13 14 13 14 13 14 12 14 15 15 16 15 17 18 9 9 13 10 8 8
5 5 6 6 5 5 4 4 4 5 5 6 10 8 8 11 13 10 8 7 7 8 11 11 11 9 8 11 14 11 13 13 13 16 10 15 12 14 13 14 9 7 8 7 6 8 7